• In Hungary
  • List of Countries
  • For 7 days
  • Water Temperature
  • Satellite Maps
  • Weather Map
  • News
  • Weather Widgets
  • user-avatar
    Login

    Hourly Weather San José de Bocay

    Today, 17 December, Sunday

    Time Temperature Precipitation Wind Pressure Humidity
    00:00 +20°C° 0 mm 1 mps 718 mmHg 97%
    01:00 +20°C° 0.1 mm 1 mps 717 mmHg 98%
    02:00 +21°C° 0.1 mm 1 mps 717 mmHg 98%
    03:00 +21°C° 0.1 mm 1 mps 717 mmHg 98%
    04:00 +21°C° 0.1 mm 1 mps 717 mmHg 98%
    05:00 +21°C° 0.1 mm 1 mps 717 mmHg 98%
    06:00 +21°C° 0.1 mm 1 mps 717 mmHg 98%
    07:00 +22°C° 0.3 mm 1 mps 718 mmHg 97%
    08:00 +21°C° 0.3 mm 2 mps 718 mmHg 97%
    09:00 +23°C° 0.3 mm 2 mps 719 mmHg 97%
    10:00 +24°C° 0.4 mm 2 mps 719 mmHg 95%
    11:00 +24°C° 0.4 mm 2 mps 718 mmHg 93%
    12:00 +25°C° 0.4 mm 2 mps 718 mmHg 91%
    13:00 +25°C° 0.5 mm 2 mps 717 mmHg 91%
    14:00 +25°C° 0.5 mm 2 mps 717 mmHg 91%
    15:00 +25°C° 0.5 mm 2 mps 716 mmHg 90%
    16:00 +24°C° 0.4 mm 2 mps 716 mmHg 93%
    17:00 +23°C° 0.4 mm 2 mps 716 mmHg 95%
    18:00 +23°C° 0.4 mm 1 mps 716 mmHg 97%
    19:00 +23°C° 0.2 mm 1 mps 717 mmHg 97%
    20:00 +22°C° 0.2 mm 1 mps 717 mmHg 97%
    21:00 +22°C° 0.2 mm 1 mps 718 mmHg 98%
    22:00 +21°C° 0.3 mm 2 mps 718 mmHg 98%
    23:00 +21°C° 0.3 mm 2 mps 718 mmHg 98%

    Tomorrow, 18 December, Monday

    Time Temperature Precipitation Wind Pressure Humidity
    00:00 +21°C° 0.3 mm 2 mps 717 mmHg 98%
    01:00 +21°C° 0.3 mm 2 mps 717 mmHg 98%
    02:00 +21°C° 0.3 mm 2 mps 717 mmHg 98%
    03:00 +22°C° 0.3 mm 1 mps 716 mmHg 98%
    04:00 +22°C° 0.5 mm 1 mps 717 mmHg 98%
    05:00 +22°C° 0.5 mm 1 mps 717 mmHg 98%
    06:00 +23°C° 0.5 mm 1 mps 717 mmHg 98%
    07:00 +23°C° 0.4 mm 2 mps 718 mmHg 98%
    08:00 +23°C° 0.4 mm 2 mps 718 mmHg 97%
    09:00 +24°C° 0.4 mm 2 mps 719 mmHg 97%
    10:00 +24°C° 0.2 mm 2 mps 719 mmHg 94%
    11:00 +25°C° 0.2 mm 2 mps 718 mmHg 91%
    12:00 +25°C° 0.2 mm 2 mps 718 mmHg 88%
    13:00 +26°C° 0.1 mm 3 mps 717 mmHg 82%
    14:00 +27°C° 0.1 mm 3 mps 717 mmHg 75%
    15:00 +28°C° 0.1 mm 3 mps 716 mmHg 69%
    16:00 +26°C° 0.3 mm 3 mps 717 mmHg 78%
    17:00 +24°C° 0.3 mm 2 mps 717 mmHg 87%
    18:00 +23°C° 0.3 mm 1 mps 717 mmHg 96%
    19:00 +23°C° 0.1 mm 1 mps 718 mmHg 97%
    20:00 +23°C° 0.1 mm 1 mps 718 mmHg 97%
    21:00 +22°C° 0.1 mm 1 mps 719 mmHg 98%
    22:00 +22°C° 0.2 mm 1 mps 719 mmHg 98%
    23:00 +22°C° 0.2 mm 1 mps 718 mmHg 98%

    Day after tomorrow, 19 December, Tuesday

    Time Temperature Precipitation Wind Pressure Humidity
    00:00 +22°C° 0.2 mm 1 mps 718 mmHg 98%
    01:00 +22°C° 0.3 mm 1 mps 718 mmHg 98%
    02:00 +22°C° 0.3 mm 1 mps 717 mmHg 98%
    03:00 +22°C° 0.3 mm 1 mps 717 mmHg 98%
    04:00 +22°C° 0.4 mm 1 mps 717 mmHg 98%
    05:00 +22°C° 0.4 mm 1 mps 717 mmHg 98%
    06:00 +22°C° 0.4 mm 1 mps 718 mmHg 98%
    07:00 +23°C° 0.5 mm 2 mps 718 mmHg 97%
    08:00 +24°C° 0.5 mm 2 mps 719 mmHg 96%
    09:00 +24°C° 0.5 mm 2 mps 719 mmHg 95%
    10:00 +25°C° 0.4 mm 2 mps 719 mmHg 91%
    11:00 +26°C° 0.4 mm 2 mps 718 mmHg 88%
    12:00 +26°C° 0.4 mm 3 mps 718 mmHg 85%
    13:00 +26°C° 0.7 mm 3 mps 717 mmHg 87%
    14:00 +26°C° 0.7 mm 2 mps 716 mmHg 89%
    15:00 +25°C° 0.7 mm 2 mps 716 mmHg 91%
    16:00 +25°C° 0.3 mm 2 mps 716 mmHg 93%
    17:00 +24°C° 0.3 mm 2 mps 716 mmHg 95%
    18:00 +23°C° 0.3 mm 1 mps 717 mmHg 97%
    19:00 +23°C° 0.2 mm 1 mps 717 mmHg 98%
    20:00 +23°C° 0.2 mm 1 mps 718 mmHg 98%
    21:00 +22°C° 0.2 mm 1 mps 718 mmHg 98%
    22:00 +22°C° 0.2 mm 1 mps 718 mmHg 98%
    23:00 +22°C° 0.2 mm 1 mps 718 mmHg 98%

    20 December, Wednesday

    Time Temperature Precipitation Wind Pressure Humidity
    00:00 +22°C° 0.2 mm 1 mps 717 mmHg 98%
    01:00 +22°C° 0.3 mm 1 mps 717 mmHg 98%
    02:00 +22°C° 0.3 mm 1 mps 717 mmHg 98%
    03:00 +22°C° 0.3 mm 1 mps 716 mmHg 98%
    04:00 +22°C° 0.1 mm 1 mps 717 mmHg 98%
    05:00 +22°C° 0.1 mm 1 mps 717 mmHg 98%
    06:00 +21°C° 0.1 mm 1 mps 717 mmHg 98%
    07:00 +22°C° 0 mm 1 mps 718 mmHg 95%
    08:00 +23°C° 0 mm 2 mps 718 mmHg 92%
    09:00 +25°C° 0 mm 2 mps 719 mmHg 90%
    10:00 +25°C° 0.5 mm 2 mps 718 mmHg 88%
    11:00 +26°C° 0.5 mm 2 mps 718 mmHg 87%
    12:00 +26°C° 0.5 mm 2 mps 717 mmHg 86%
    13:00 +26°C° 0.5 mm 2 mps 716 mmHg 85%
    14:00 +26°C° 0.5 mm 2 mps 716 mmHg 84%
    15:00 +26°C° 0.5 mm 2 mps 715 mmHg 83%
    16:00 +25°C° 0.2 mm 2 mps 716 mmHg 88%
    17:00 +24°C° 0.2 mm 1 mps 716 mmHg 92%
    18:00 +23°C° 0.2 mm 1 mps 716 mmHg 96%
    19:00 +22°C° 0.1 mm 1 mps 717 mmHg 96%
    20:00 +22°C° 0.1 mm 1 mps 717 mmHg 97%
    21:00 +22°C° 0.1 mm 1 mps 717 mmHg 97%
    22:00 +22°C° 0.1 mm 1 mps 717 mmHg 98%
    23:00 +21°C° 0.1 mm 1 mps 717 mmHg 98%

    21 December, Thursday

    Time Temperature Precipitation Wind Pressure Humidity
    00:00 +21°C° 0.1 mm 1 mps 717 mmHg 98%
    01:00 +21°C° 0.1 mm 1 mps 716 mmHg 98%
    02:00 +21°C° 0.1 mm 1 mps 716 mmHg 98%
    03:00 +21°C° 0.1 mm 1 mps 716 mmHg 98%
    04:00 +21°C° 0.1 mm 1 mps 716 mmHg 98%
    05:00 +21°C° 0.1 mm 1 mps 717 mmHg 98%
    06:00 +21°C° 0.1 mm 1 mps 717 mmHg 98%
    07:00 +22°C° 0.3 mm 1 mps 718 mmHg 96%
    08:00 +23°C° 0.3 mm 2 mps 718 mmHg 94%
    09:00 +24°C° 0.3 mm 2 mps 719 mmHg 92%
    10:00 +25°C° 0.5 mm 2 mps 718 mmHg 90%
    11:00 +26°C° 0.5 mm 2 mps 717 mmHg 87%
    12:00 +26°C° 0.5 mm 2 mps 717 mmHg 84%
    13:00 +26°C° 0.8 mm 2 mps 716 mmHg 86%
    14:00 +26°C° 0.8 mm 2 mps 716 mmHg 87%
    15:00 +26°C° 0.8 mm 2 mps 715 mmHg 89%
    16:00 +25°C° 0.3 mm 2 mps 716 mmHg 92%
    17:00 +24°C° 0.3 mm 1 mps 716 mmHg 94%
    18:00 +22°C° 0.3 mm 1 mps 717 mmHg 97%
    19:00 +22°C° 0.1 mm 1 mps 717 mmHg 97%
    20:00 +22°C° 0.1 mm 1 mps 717 mmHg 98%
    21:00 +22°C° 0.1 mm 1 mps 718 mmHg 98%
    22:00 +22°C° 0.2 mm 1 mps 717 mmHg 98%
    23:00 +22°C° 0.2 mm 1 mps 717 mmHg 98%

    22 December, Friday

    Time Temperature Precipitation Wind Pressure Humidity
    00:00 +22°C° 0.2 mm 1 mps 717 mmHg 98%
    01:00 +22°C° 0.2 mm 1 mps 717 mmHg 98%
    02:00 +22°C° 0.2 mm 1 mps 716 mmHg 98%
    03:00 +22°C° 0.2 mm 1 mps 716 mmHg 98%
    04:00 +22°C° 0.3 mm 1 mps 716 mmHg 98%
    05:00 +22°C° 0.3 mm 1 mps 717 mmHg 98%
    06:00 +22°C° 0.3 mm 1 mps 717 mmHg 98%
    07:00 +22°C° 0.3 mm 1 mps 718 mmHg 97%
    08:00 +23°C° 0.3 mm 2 mps 718 mmHg 95%
    09:00 +24°C° 0.3 mm 2 mps 719 mmHg 94%
    10:00 +25°C° 0.3 mm 2 mps 718 mmHg 88%
    11:00 +26°C° 0.3 mm 2 mps 718 mmHg 83%
    12:00 +27°C° 0.3 mm 2 mps 717 mmHg 78%
    13:00 +27°C° 0.2 mm 2 mps 717 mmHg 75%
    14:00 +28°C° 0.2 mm 2 mps 716 mmHg 72%
    15:00 +28°C° 0.2 mm 2 mps 716 mmHg 69%
    16:00 +26°C° 0.2 mm 2 mps 716 mmHg 78%
    17:00 +25°C° 0.2 mm 2 mps 716 mmHg 87%
    18:00 +23°C° 0.2 mm 1 mps 716 mmHg 96%
    19:00 +23°C° 0.2 mm 1 mps 717 mmHg 97%
    20:00 +22°C° 0.2 mm 1 mps 717 mmHg 97%
    21:00 +22°C° 0.2 mm 1 mps 718 mmHg 98%
    22:00 +22°C° 0.2 mm 1 mps 717 mmHg 98%
    23:00 +22°C° 0.2 mm 1 mps 717 mmHg 98%
    Show more